timestamp,surface_pressure_avg,surface_temp_avg,battery_voltage,lat,long
2022-05-18 00:09:01+00:00,376.3812,6.73,11.86,47.84626,-54.09684
2022-05-18 00:19:00+00:00,384.0712,6.75,11.86,47.84626,-54.09684
2022-05-18 00:29:00+00:00,388.413,6.76,11.86,47.84626,-54.09684
2022-05-18 00:39:00+00:00,387.2412,6.8,11.86,47.84626,-54.09684
2022-05-18 00:49:00+00:00,388.1713,6.8,11.86,47.84626,-54.09684
2022-05-18 00:59:00+00:00,392.7228,6.8,11.86,47.84626,-54.09684
2022-05-18 01:09:00+00:00,388.3013,6.8,11.86,47.84626,-54.09684
2022-05-18 01:19:01+00:00,383.2197,6.8,11.86,47.84626,-54.09684
2022-05-18 01:29:01+00:00,384.5379,6.81,11.86,47.84626,-54.09684
2022-05-18 01:39:01+00:00,383.4346,6.8,11.86,47.84626,-54.09684
2022-05-18 01:49:01+00:00,376.7296,6.8,11.86,47.84626,-54.09684
2022-05-18 01:59:01+00:00,374.2196,6.8,11.86,47.84626,-54.09684
2022-05-18 02:09:01+00:00,374.8929,6.8,11.86,47.84626,-54.09684
2022-05-18 02:19:00+00:00,369.9747,6.8,11.86,47.84626,-54.09684
2022-05-18 02:29:00+00:00,362.4963,6.8,11.86,47.84626,-54.09684
2022-05-18 02:39:00+00:00,360.5446,6.8,11.86,47.84626,-54.09684
2022-05-18 02:49:00+00:00,355.923,6.8,11.86,47.84626,-54.09684
2022-05-18 02:59:00+00:00,344.4763,6.8,11.86,47.84626,-54.09684
2022-05-18 03:09:00+00:00,334.4363,6.88,11.86,47.84626,-54.09684
2022-05-18 03:19:00+00:00,327.303,6.9,11.86,47.84626,-54.09684
2022-05-18 03:29:00+00:00,321.4896,6.9,11.86,47.84626,-54.09684
2022-05-18 03:39:00+00:00,311.0114,6.9,11.86,47.84626,-54.09684
2022-05-18 03:49:00+00:00,299.868,6.9,11.86,47.84626,-54.09684
2022-05-18 03:59:00+00:00,290.9063,6.9,11.86,47.84626,-54.09684
2022-05-18 04:09:00+00:00,279.9764,6.9,11.86,47.84626,-54.09684
2022-05-18 04:19:00+00:00,269.9581,6.9,11.86,47.84626,-54.09684
2022-05-18 04:29:00+00:00,260.5998,6.9,11.86,47.84626,-54.09684
2022-05-18 04:39:00+00:00,248.7981,6.9,11.86,47.84626,-54.09684
2022-05-18 04:49:00+00:00,233.9264,6.9,11.86,47.84626,-54.09684
2022-05-18 04:59:00+00:00,222.5797,6.9,11.86,47.84626,-54.09684
2022-05-18 05:09:00+00:00,214.7581,6.9,11.86,47.84626,-54.09684
2022-05-18 05:19:00+00:00,206.8598,6.9,11.86,47.84626,-54.09684
2022-05-18 05:29:00+00:00,198.9648,6.9,11.86,47.84626,-54.09684
2022-05-18 05:39:00+00:00,192.8448,6.9,11.86,47.84626,-54.09684
2022-05-18 05:49:00+00:00,186.0515,6.9,11.86,47.84626,-54.09684
2022-05-18 05:59:00+00:00,179.3648,6.9,11.86,47.84626,-54.09684
2022-05-18 06:09:00+00:00,176.6965,6.94,11.86,47.84626,-54.09684
2022-05-18 06:19:00+00:00,173.2615,6.98,11.86,47.84626,-54.09684
2022-05-18 06:29:00+00:00,168.0331,7.0,11.86,47.84626,-54.09684
2022-05-18 06:39:00+00:00,167.2965,7.0,11.86,47.84626,-54.09684
2022-05-18 06:49:00+00:00,169.8181,7.0,11.86,47.84626,-54.09684
2022-05-18 06:59:00+00:00,172.1631,7.0,11.86,47.84626,-54.09684
2022-05-18 07:09:00+00:00,172.6748,7.0,11.86,47.84626,-54.09684
2022-05-18 07:19:00+00:00,174.2015,7.0,11.86,47.84626,-54.09684
2022-05-18 07:29:00+00:00,176.6815,7.0,11.86,47.84626,-54.09684
2022-05-18 07:39:00+00:00,179.5448,7.0,11.86,47.84626,-54.09684
2022-05-18 07:49:00+00:00,184.9798,6.99,11.86,47.84626,-54.09684
2022-05-18 07:59:00+00:00,190.7331,6.9,11.86,47.84626,-54.09684
2022-05-18 08:09:00+00:00,191.9831,6.9,11.86,47.84626,-54.09684
2022-05-18 08:19:01+00:00,194.9615,6.9,11.86,47.84626,-54.09684
2022-05-18 08:29:01+00:00,202.6064,6.9,11.86,47.84626,-54.09684
2022-05-18 08:39:01+00:00,205.5265,6.9,11.86,47.84626,-54.09684
2022-05-18 08:49:01+00:00,204.2914,6.9,11.86,47.84626,-54.09684
2022-05-18 08:59:01+00:00,209.5565,6.9,11.86,47.84626,-54.09684
2022-05-18 09:09:01+00:00,216.4098,6.9,11.86,47.84626,-54.09684
2022-05-18 09:19:00+00:00,218.4348,6.9,11.86,47.84626,-54.09684
2022-05-18 09:29:00+00:00,217.9098,6.9,11.86,47.84626,-54.09684
2022-05-18 09:39:00+00:00,224.2931,6.9,11.86,47.84626,-54.09684
2022-05-18 09:49:00+00:00,230.9481,6.9,11.86,47.84626,-54.09684
2022-05-18 09:59:00+00:00,231.3815,6.9,11.86,47.84626,-54.09684
2022-05-18 10:09:00+00:00,235.2581,6.9,11.86,47.84626,-54.09684
2022-05-18 10:19:00+00:00,246.4514,6.9,11.86,47.84626,-54.09684
2022-05-18 10:29:00+00:00,256.9615,6.9,11.86,47.84626,-54.09684
2022-05-18 10:39:00+00:00,259.2931,6.9,11.86,47.84626,-54.09684
2022-05-18 10:49:00+00:00,263.2264,6.9,11.86,47.84626,-54.09684
2022-05-18 10:59:00+00:00,273.783,6.9,11.86,47.84626,-54.09684
2022-05-18 11:09:00+00:00,284.363,6.9,11.86,47.84626,-54.09684
2022-05-18 11:19:00+00:00,287.6281,6.9,11.86,47.84626,-54.09684
2022-05-18 11:29:00+00:00,296.913,6.97,11.86,47.84626,-54.09684
2022-05-18 11:39:00+00:00,307.1931,6.97,11.86,47.84626,-54.09684
2022-05-18 11:49:00+00:00,310.9397,6.97,11.86,47.84626,-54.09684
2022-05-18 11:59:00+00:00,317.9713,6.97,11.86,47.84626,-54.09684
2022-05-18 12:09:00+00:00,328.728,6.9,11.86,47.84626,-54.09684
2022-05-18 12:19:01+00:00,331.2513,6.9,11.86,47.84626,-54.09684
2022-05-18 12:29:01+00:00,331.86800000000005,6.9,11.86,47.84626,-54.09684
2022-05-18 12:39:01+00:00,336.7547,6.9,11.86,47.84626,-54.09684
2022-05-18 12:49:01+00:00,342.0613,6.9,11.86,47.84626,-54.09684
2022-05-18 12:59:01+00:00,341.4346,6.9,11.86,47.84626,-54.09684
2022-05-18 13:09:01+00:00,341.278,6.9,11.86,47.84626,-54.09684
2022-05-18 13:19:00+00:00,346.8997,6.9,11.86,47.84626,-54.09684
2022-05-18 13:29:00+00:00,350.173,6.9,11.86,47.84626,-54.09684
2022-05-18 13:39:00+00:00,348.5862,6.9,11.86,47.84626,-54.09684
2022-05-18 13:49:00+00:00,345.158,6.91,11.86,47.84626,-54.09684
2022-05-18 13:59:00+00:00,343.62800000000016,6.96,11.86,47.84626,-54.09684
2022-05-18 14:09:00+00:00,343.2296,6.96,11.86,47.84626,-54.09684
2022-05-18 14:19:00+00:00,340.7496,6.96,11.86,47.84626,-54.09684
2022-05-18 14:29:00+00:00,339.9279,6.98,11.86,47.84626,-54.09684
2022-05-18 14:39:00+00:00,338.348,6.98,11.86,47.84626,-54.09684
2022-05-18 14:49:00+00:00,331.5313,6.98,11.86,47.84626,-54.09684
2022-05-18 14:59:00+00:00,325.8262,6.99,11.86,47.84626,-54.09684
2022-05-18 15:09:00+00:00,321.4296,6.99,11.86,47.84626,-54.09684
2022-05-18 15:19:00+00:00,315.3814,6.99,11.86,47.84626,-54.09684
2022-05-18 15:29:00+00:00,306.5746,6.99,11.86,47.84626,-54.09684
2022-05-18 15:39:00+00:00,298.7581,6.99,11.86,47.84626,-54.09684
2022-05-18 15:49:00+00:00,288.343,6.99,11.86,47.84626,-54.09684
2022-05-18 15:59:00+00:00,277.7631,6.98,11.86,47.84626,-54.09684
2022-05-18 16:09:00+00:00,269.1581,6.99,11.86,47.84626,-54.09684
2022-05-18 16:19:00+00:00,260.0347,6.99,11.86,47.84626,-54.09684
2022-05-18 16:29:00+00:00,251.2164,7.0,11.86,47.84626,-54.09684
2022-05-18 16:39:00+00:00,241.6397,7.0,11.86,47.84626,-54.09684
2022-05-18 16:49:00+00:00,233.6948,7.0,11.86,47.84626,-54.09684
2022-05-18 16:59:00+00:00,226.1498,7.0,11.86,47.84626,-54.09684
2022-05-18 17:09:00+00:00,215.4414,7.0,11.86,47.84626,-54.09684
2022-05-18 17:19:01+00:00,205.1747,7.0,11.86,47.84626,-54.09684
2022-05-18 17:29:01+00:00,195.8864,7.0,11.86,47.84626,-54.09684
2022-05-18 17:39:01+00:00,186.9564,7.0,11.86,47.84626,-54.09684
2022-05-18 17:49:01+00:00,181.2165,7.0,11.86,47.84626,-54.09684
2022-05-18 17:59:01+00:00,175.8264,7.0,11.86,47.84626,-54.09684
2022-05-18 18:09:01+00:00,166.8615,7.0,11.86,47.84626,-54.09684
2022-05-18 18:19:00+00:00,162.2682,7.0,11.86,47.84626,-54.09684
2022-05-18 18:29:00+00:00,165.7082,7.0,11.86,47.84626,-54.09684
2022-05-18 18:39:00+00:00,165.2281,7.0,11.86,47.84626,-54.09684
2022-05-18 18:49:00+00:00,161.7849,7.0,11.86,47.84626,-54.09684
2022-05-18 18:59:00+00:00,163.3298,7.0,11.86,47.84626,-54.09684
2022-05-18 19:09:00+00:00,164.4465,7.0,11.86,47.84626,-54.09684
2022-05-18 20:19:00+00:00,190.8081,7.15,11.86,47.84626,-54.09684
2022-05-18 20:29:00+00:00,198.4164,7.19,11.86,47.84626,-54.09684
2022-05-18 20:39:00+00:00,207.3315,7.2,11.86,47.84626,-54.09684
2022-05-18 20:49:00+00:00,211.6448,7.2,11.86,47.84626,-54.09684
2022-05-18 20:59:00+00:00,214.8615,7.2,11.86,47.84626,-54.09684
2022-05-18 21:09:00+00:00,218.4081,7.22,11.86,47.84626,-54.09684
2022-05-18 21:19:00+00:00,223.4615,7.28,11.86,47.84626,-54.09684
2022-05-18 21:29:00+00:00,227.0114,7.28,11.86,47.84626,-54.09684
2022-05-18 21:39:00+00:00,227.4031,7.28,11.86,47.84626,-54.09684
2022-05-18 21:49:00+00:00,231.1998,7.29,11.86,47.84626,-54.09684
2022-05-18 21:59:00+00:00,240.1214,7.29,11.86,47.84626,-54.09684
2022-05-18 22:09:00+00:00,246.3347,7.3,11.86,47.84626,-54.09684
2022-05-18 22:19:00+00:00,247.9264,7.3,11.86,47.84626,-54.09684
2022-05-18 22:29:00+00:00,253.6981,7.3,11.86,47.84626,-54.09684
2022-05-18 22:39:00+00:00,265.2997,7.3,11.86,47.84626,-54.09684
2022-05-18 22:49:00+00:00,273.803,7.3,11.86,47.84626,-54.09684
2022-05-18 22:59:00+00:00,276.8597,7.3,11.86,47.84626,-54.09684
2022-05-18 23:09:00+00:00,284.9297,7.3,11.86,47.84626,-54.09684
2022-05-18 23:19:00+00:00,298.2097,7.3,11.86,47.84626,-54.09684
2022-05-18 23:29:00+00:00,309.9763,7.3,11.86,47.84626,-54.09684
2022-05-18 23:39:00+00:00,316.6346,7.3,11.86,47.84626,-54.09684
2022-05-18 23:49:00+00:00,326.2263,7.2,11.86,47.84626,-54.09684
2022-05-18 23:59:00+00:00,339.0897,7.2,11.86,47.84626,-54.09684
